Weather History for KCSQ - January, 2012

Change the Weather History Date:

Monday, January 30, 2012

  Actual Average Record
Temperature  
Mean Temperature 48 °F -  
Max Temperature 62 °F 32 °F 62 °F (2012)
Min Temperature 33 °F 10 °F -22 °F (1965)
Degree Days  
Heating Degree Days 18    
Moisture  
Dew Point 24 °F    
Average Humidity 44    
Maximum Humidity 65    
Minimum Humidity 20    
Precipitation  
Precipitation 0.00 in - - ()
Sea Level Pressure  
Sea Level Pressure 29.83 in    
Wind  
Wind Speed 14 mph (SSW)    
Max Wind Speed 21 mph    
Max Gust Speed 26 mph    
Visibility 10 miles    
Events      
Averages and records for this station are not official NWS values.
T = Trace of Precipitation, MM = Missing Value Source: NWS Daily Summary

Daily Weather History Graph

Daily Weather History Graph

Search for Another Location

Airport or City:

Trip Planner

Search our weather history database for the weather conditions in past years. The results will help you decide how hot, cold, wet, or windy it might be!

Date:

Astronomy

Jan. 30, 2012 Rise Set
Actual Time 7:30 AM CST 5:31 PM CST
Civil Twilight 7:01 AM CST 6:00 PM CST
Nautical Twilight 6:28 AM CST 6:33 PM CST
Astronomical Twilight 5:55 AM CST 7:06 PM CST
Moon 10:49 AM CST (1/30) 12:20 AM CST (1/30)
Length of Visible Light 10h 59m
Length of Day
10h 01m
Waxing Crescent, 46% of the Moon is Illuminated
Jan 30
Waxing Crescent
Jan 30
First Quarter
Feb 7
Full
Feb 14
Last Quarter
Feb 21
New

Hourly Weather History & Observations

Time (CST) Temp. Windchill Dew Point Humidity Pressure Visibility Wind Dir Wind Speed Gust Speed Precip Events Conditions
12:15 AM 33.8 °F 24.8 °F 19.4 °F 56% 29.95 in 10.0 mi SSE 12.7 mph - N/A   Clear
12:35 AM 35.6 °F 27.5 °F 19.4 °F 52% 29.95 in 10.0 mi SSE 11.5 mph - N/A   Clear
12:55 AM 35.6 °F 27.1 °F 21.2 °F 56% 29.93 in 10.0 mi SSE 12.7 mph - N/A   Scattered Clouds
1:15 AM 35.6 °F 27.5 °F 21.2 °F 56% 29.93 in 10.0 mi South 11.5 mph - N/A   Clear
1:35 AM 35.6 °F 27.1 °F 21.2 °F 56% 29.92 in 10.0 mi South 12.7 mph - N/A   Clear
1:55 AM 35.6 °F 28.0 °F 21.2 °F 56% 29.92 in 10.0 mi South 10.4 mph - N/A   Clear
2:15 AM 37.4 °F 30.3 °F 21.2 °F 52% 29.91 in 10.0 mi South 10.4 mph - N/A   Clear
2:35 AM 35.6 °F 27.5 °F 21.2 °F 56% 29.91 in 10.0 mi South 11.5 mph - N/A   Clear
2:55 AM 35.6 °F 27.1 °F 21.2 °F 56% 29.89 in 10.0 mi South 12.7 mph - N/A   Clear
3:15 AM 35.6 °F 26.6 °F 23.0 °F 60% 29.88 in 10.0 mi South 13.8 mph - N/A   Clear
3:35 AM 37.4 °F 29.8 °F 24.8 °F 60% 29.88 in 10.0 mi SSW 11.5 mph - N/A   Clear
3:55 AM 37.4 °F 30.3 °F 24.8 °F 60% 29.87 in 10.0 mi SSW 10.4 mph - N/A   Clear
4:15 AM 37.4 °F 30.3 °F 24.8 °F 60% 29.86 in 10.0 mi SSW 10.4 mph - N/A   Clear
4:35 AM 37.4 °F 30.8 °F 26.6 °F 65% 29.86 in 10.0 mi SSW 9.2 mph - N/A   Clear
4:55 AM 39.2 °F 33.6 °F 26.6 °F 61% 29.86 in 10.0 mi SSW 8.1 mph - N/A   Clear
5:15 AM 39.2 °F 32.5 °F 26.6 °F 61% 29.85 in 10.0 mi SW 10.4 mph - N/A   Clear
5:35 AM 41.0 °F 34.3 °F 26.6 °F 57% 29.84 in 10.0 mi SSW 11.5 mph 16.1 mph N/A   Clear
5:55 AM 41.0 °F 33.5 °F 26.6 °F 57% 29.84 in 10.0 mi SSW 13.8 mph - N/A   Clear
6:15 AM 41.0 °F 32.2 °F 26.6 °F 57% 29.82 in 10.0 mi SSW 18.4 mph - N/A   Clear
6:35 AM 41.0 °F 32.2 °F 26.6 °F 57% 29.82 in 10.0 mi SSW 18.4 mph - N/A   Clear
6:55 AM 39.2 °F 30.2 °F 26.6 °F 61% 29.82 in 10.0 mi SSW 17.3 mph - N/A   Clear
7:15 AM 39.2 °F 30.8 °F 26.6 °F 61% 29.82 in 10.0 mi SSW 15.0 mph 19.6 mph N/A   Clear
7:35 AM 39.2 °F 31.2 °F 26.6 °F 61% 29.83 in 10.0 mi SW 13.8 mph 21.9 mph N/A   Clear
7:55 AM 39.2 °F 31.6 °F 26.6 °F 61% 29.83 in 10.0 mi SW 12.7 mph - N/A   Clear
8:15 AM 39.2 °F 32.5 °F 26.6 °F 61% 29.84 in 10.0 mi SW 10.4 mph - N/A   Clear
8:35 AM 41.0 °F 33.5 °F 26.6 °F 57% 29.83 in 10.0 mi SW 13.8 mph - N/A   Clear
8:55 AM 42.8 °F 35.4 °F 26.6 °F 53% 29.83 in 10.0 mi SW 15.0 mph - N/A   Clear
9:15 AM 44.6 °F 37.2 °F 26.6 °F 49% 29.83 in 10.0 mi SW 17.3 mph 24.2 mph N/A   Clear
9:35 AM 46.4 °F 39.0 °F 24.8 °F 43% 29.83 in 10.0 mi SW 19.6 mph - N/A   Clear
10:15 AM 50.0 °F - 23.0 °F 35% 29.84 in 10.0 mi SW 17.3 mph 21.9 mph N/A   Clear
10:35 AM 51.8 °F - 21.2 °F 30% 29.84 in 10.0 mi WSW 18.4 mph 23.0 mph N/A   Clear
10:55 AM 51.8 °F - 21.2 °F 30% 29.84 in 10.0 mi SW 18.4 mph 23.0 mph N/A   Clear
11:15 AM 53.6 °F - 21.2 °F 28% 29.84 in 10.0 mi SW 19.6 mph 24.2 mph N/A   Clear
11:35 AM 55.4 °F - 21.2 °F 26% 29.83 in 10.0 mi SW 18.4 mph 21.9 mph N/A   Clear
11:55 AM 55.4 °F - 21.2 °F 26% 29.83 in 10.0 mi SW 16.1 mph - N/A   Clear
12:15 PM 55.4 °F - 21.2 °F 26% 29.81 in 10.0 mi SSW 16.1 mph - N/A   Clear
12:35 PM 57.2 °F - 21.2 °F 25% 29.81 in 10.0 mi SSW 18.4 mph 24.2 mph N/A   Clear
12:55 PM 57.2 °F - 21.2 °F 25% 29.80 in 10.0 mi SSW 18.4 mph 23.0 mph N/A   Clear
1:15 PM 57.2 °F - 21.2 °F 25% 29.79 in 10.0 mi SSW 18.4 mph 23.0 mph N/A   Clear
1:35 PM 60.8 °F - 21.2 °F 22% 29.78 in 10.0 mi SW 16.1 mph 23.0 mph N/A   Clear
2:15 PM 62.6 °F - 21.2 °F 20% 29.76 in 10.0 mi SSW 19.6 mph - N/A   Clear
2:35 PM 62.6 °F - 21.2 °F 20% 29.75 in 10.0 mi SSW 18.4 mph 26.5 mph N/A   Clear
2:55 PM 62.6 °F - 21.2 °F 20% 29.75 in 10.0 mi SSW 20.7 mph 25.3 mph N/A   Clear
3:15 PM 62.6 °F - 21.2 °F 20% 29.75 in 10.0 mi SSW 20.7 mph 25.3 mph N/A   Clear
3:35 PM 62.6 °F - 21.2 °F 20% 29.75 in 10.0 mi SSW 18.4 mph - N/A   Clear
3:55 PM 62.6 °F - 21.2 °F 20% 29.76 in 10.0 mi SSW 16.1 mph - N/A   Clear
4:15 PM 62.6 °F - 21.2 °F 20% 29.76 in 10.0 mi SSW 13.8 mph 21.9 mph N/A   Clear
4:35 PM 60.8 °F - 23.0 °F 23% 29.76 in 10.0 mi SSW 13.8 mph 21.9 mph N/A   Clear
4:55 PM 57.2 °F - 23.0 °F 27% 29.77 in 10.0 mi SSW 12.7 mph - N/A   Clear
5:15 PM 55.4 °F - 24.8 °F 31% 29.77 in 10.0 mi SSW 12.7 mph - N/A   Clear
5:35 PM 51.8 °F - 24.8 °F 35% 29.77 in 10.0 mi South 13.8 mph - N/A   Clear
5:55 PM 48.2 °F - 26.6 °F 43% 29.77 in 10.0 mi South 13.8 mph - N/A   Clear
6:35 PM 48.2 °F - 26.6 °F 43% 29.78 in 10.0 mi South 12.7 mph - N/A   Clear
6:55 PM 48.2 °F - 26.6 °F 43% 29.78 in 10.0 mi South 13.8 mph - N/A   Clear
7:15 PM 46.4 °F 40.4 °F 28.4 °F 50% 29.78 in 10.0 mi South 13.8 mph - N/A   Clear
7:35 PM 46.4 °F 40.1 °F 28.4 °F 50% 29.78 in 10.0 mi SSW 15.0 mph - N/A   Clear
7:55 PM 48.2 °F - 28.4 °F 46% 29.78 in 10.0 mi South 15.0 mph - N/A   Clear
8:15 PM 46.4 °F 40.1 °F 28.4 °F 50% 29.78 in 10.0 mi South 15.0 mph - N/A   Clear
8:35 PM 46.4 °F 40.4 °F 30.2 °F 53% 29.78 in 10.0 mi South 13.8 mph - N/A   Clear
8:55 PM 46.4 °F 40.1 °F 30.2 °F 53% 29.79 in 10.0 mi South 15.0 mph - N/A   Clear
9:15 PM 46.4 °F 39.8 °F 30.2 °F 53% 29.78 in 10.0 mi South 16.1 mph - N/A   Clear
9:35 PM 46.4 °F 39.8 °F 30.2 °F 53% 29.78 in 10.0 mi SSW 16.1 mph - N/A   Clear
9:55 PM 46.4 °F 40.1 °F 30.2 °F 53% 29.78 in 10.0 mi SSW 15.0 mph - N/A   Clear
10:15 PM 46.4 °F 40.4 °F 32.0 °F 57% 29.78 in 10.0 mi SSW 13.8 mph - N/A   Clear
10:35 PM 46.4 °F 40.4 °F 32.0 °F 57% 29.78 in 10.0 mi SSW 13.8 mph - N/A   Clear
10:55 PM 46.4 °F 40.4 °F 33.8 °F 62% 29.79 in 10.0 mi SSW 13.8 mph - N/A   Clear
11:15 PM 46.4 °F 40.7 °F 33.8 °F 62% 29.80 in 10.0 mi SW 12.7 mph - N/A   Clear
11:55 PM 44.6 °F 38.8 °F 33.8 °F 66% 29.80 in 10.0 mi SSW 11.5 mph - N/A   Clear